Weather History for Grand Island, NE

Change the Weather History Date:

Thursday, August 14, 2014

  Actual Average Record
Temperature  
Mean Temperature 75 °F 74 °F  
Max Temperature 86 °F 86 °F 104 °F (1913)
Min Temperature 63 °F 63 °F 46 °F (1929)
Degree Days  
Heating Degree Days 0 0  
Month to date heating degree days 0 0  
Since 1 June heating degree days 14 26  
Since 1 July heating degree days 4 2  
Cooling Degree Days 10 10  
Month to date cooling degree days 124 145  
Year to date cooling degree days 765 772  
Since 1 June cooling degree days 646 707  
Growing Degree Days 24 (Base 50)    
Moisture  
Dew Point 62 °F    
Average Humidity 70    
Maximum Humidity 84    
Minimum Humidity 55    
Precipitation  
Precipitation 0.00 in 0.11 in 2.02 in (1982)
Month to date precipitation 2.85 1.52  
Year to date precipitation 19.18 19.17  
Snow  
Snow 0.00 in 0.00 in - ()
Month to date snowfall 0.0 0.0  
Since 1 June snowfall 0.0 0.0  
Since 1 July snowfall 0.0 0.0  
Snow Depth 0.00 in    
Sea Level Pressure  
Sea Level Pressure 29.97 in    
Wind  
Wind Speed 13 mph (SE)    
Max Wind Speed 22 mph    
Max Gust Speed 29 mph    
Visibility 10 miles    
Events      
T = Trace of Precipitation, MM = Missing Value Source: NWS Daily Summary

Daily Weather History Graph

Daily Weather History Graph

Search for Another Location

Airport:

Trip Planner

Search our weather history database for the weather conditions in past years. The results will help you decide how hot, cold, wet, or windy it might be!

Date:

Astronomy

Aug. 14, 2014 Rise Set
Actual Time 6:42 AM CDT 8:32 PM CDT
Civil Twilight 6:12 AM CDT 9:02 PM CDT
Nautical Twilight 5:36 AM CDT 9:38 PM CDT
Astronomical Twilight 4:57 AM CDT 10:16 PM CDT
Moon 10:54 PM CDT (8/14) 11:23 AM CDT (8/14)
Length of Visible Light 14h 49m
Length of Day
13h 50m
Waning Gibbous, 79% of the Moon is Illuminated
Aug 14
Waning Gibbous
Aug 17
Last Quarter
Aug 25
New
Sep 2
First Quarter
Sep 8
Full

Hourly Weather History & Observations

Time (CDT) Temp. Heat Index Dew Point Humidity Pressure Visibility Wind Dir Wind Speed Gust Speed Precip Events Conditions
12:53 AM 68.0 °F - 59.0 °F 73% 30.04 in 10.0 mi SE 8.1 mph - N/A   Clear
1:53 AM 66.9 °F - 59.0 °F 76% 30.04 in 10.0 mi SSE 9.2 mph - N/A   Clear
2:53 AM 66.9 °F - 57.9 °F 73% 30.02 in 10.0 mi SSE 11.5 mph - N/A   Clear
3:53 AM 66.0 °F - 57.0 °F 73% 30.01 in 10.0 mi SSE 10.4 mph - N/A   Clear
4:53 AM 64.0 °F - 57.9 °F 80% 30.01 in 10.0 mi SSE 9.2 mph - N/A   Clear
5:53 AM 63.0 °F - 57.0 °F 81% 30.01 in 10.0 mi SSE 9.2 mph - N/A   Clear
6:53 AM 63.0 °F - 55.9 °F 78% 30.01 in 10.0 mi SSE 9.2 mph - N/A   Clear
7:53 AM 66.0 °F - 57.0 °F 73% 30.02 in 10.0 mi SSE 10.4 mph - N/A   Clear
8:53 AM 70.0 °F - 59.0 °F 68% 30.02 in 10.0 mi SSE 10.4 mph - N/A   Clear
9:53 AM 73.9 °F - 61.0 °F 64% 30.02 in 10.0 mi SE 12.7 mph - N/A   Clear
10:53 AM 78.1 °F - 62.1 °F 58% 30.00 in 10.0 mi SSE 16.1 mph 24.2 mph N/A   Clear
11:53 AM 81.0 °F 82.5 °F 64.0 °F 56% 29.98 in 10.0 mi SSE 17.3 mph 21.9 mph N/A   Clear
12:53 PM 82.0 °F 83.4 °F 64.0 °F 54% 29.96 in 10.0 mi SSE 18.4 mph 26.5 mph N/A   Clear
1:53 PM 84.9 °F 87.6 °F 66.9 °F 55% 29.95 in 10.0 mi SSE 13.8 mph 23.0 mph N/A   Clear
2:53 PM 84.0 °F 86.3 °F 66.0 °F 55% 29.95 in 10.0 mi SE 15.0 mph 24.2 mph N/A   Clear
3:53 PM 84.0 °F 86.5 °F 66.9 °F 56% 29.93 in 10.0 mi SE 12.7 mph 23.0 mph N/A   Partly Cloudy
4:53 PM 84.9 °F 87.6 °F 66.9 °F 55% 29.92 in 10.0 mi SE 16.1 mph 24.2 mph N/A   Partly Cloudy
5:53 PM 84.9 °F 87.6 °F 66.9 °F 55% 29.91 in 10.0 mi SE 17.3 mph 24.2 mph N/A   Clear
6:53 PM 82.9 °F 85.4 °F 66.9 °F 58% 29.90 in 10.0 mi SE 12.7 mph - N/A   Clear
7:53 PM 81.0 °F 83.3 °F 66.9 °F 62% 29.89 in 10.0 mi SE 10.4 mph - N/A   Clear
8:53 PM 75.9 °F - 66.9 °F 74% 29.90 in 10.0 mi ESE 8.1 mph - N/A   Clear
9:53 PM 75.9 °F - 66.0 °F 71% 29.91 in 10.0 mi SE 10.4 mph - N/A   Clear
10:53 PM 75.0 °F - 64.9 °F 71% 29.90 in 10.0 mi SSE 16.1 mph 24.2 mph N/A   Mostly Cloudy
11:53 PM 75.9 °F - 64.0 °F 67% 29.86 in 10.0 mi SE 17.3 mph 25.3 mph N/A   Partly Cloudy